Weather in Moskovskaya

Russia / Kirov Oblast     58°49′33″N   53°07′12″E
temp.,
°C
wind,
m/s
gust,
m/s
humid.,
%
clouds,
%
prec.,
mm/h
press.,
hPa
HPBL,
m
21 june, mon
mon2100:00+13se225120 0.0 102238
03:00+9ese387017 0.0 1023156
06:00+15se485870 0.0 1022313
09:00+20s4651100 0.0 1020733
12:00+20ssw366580 0.0 1019629
15:00+26wsw3556100 0.1 10171374
18:00+24wsw2275100 0.1 101768
21:00+21w227582 0.1 101845
22 june, tue
tue2200:00+18w248012 0.0 101851
03:00+17wnw25805 0.0 101990
06:00+22wnw25677 0.0 1018189
09:00+28nw36478 0.0 10181087
12:00+30nnw453563 0.0 10182783
15:00+29nnw254663 0.0 10181797
18:00+23nw225934 0.0 101828
21:00+19wsw228876 0.5 101719
23 june, wed
wed2300:00+17wsw119079 0.0 101811
03:00+17sw119083 0.2 101713
06:00+18ene11925 0.4 101842
09:00+24ese116456 0.4 1018663
12:00+27ene1255100 0.0 10181269
15:00+28ene13538 0.0 10181450
18:00+25e236612 0.0 1017182
21:00+19s279512 0.0 1018151
24 june, thu
thu2400:00+17ssw2699100 0.0 1018145
03:00+17ssw259880 0.0 1018120
06:00+21sw358775 0.6 1017268
09:00+26wsw236033 0.6 1016844
12:00+30w344655 0.0 10151979
15:00+27wnw395828 0.0 1014361
18:00+25ssw257391 0.1 1012213
21:00+17sse269884 4.1 1015168
25 june, fri
fri2500:00+18w2398100 0.5 101465
03:00+19wsw41295100 0.7 1013263
06:00+21w278880 0.3 1012227
09:00+28w365215 0.3 1011581
12:00+32wnw46383 0.0 10102321
15:00+32wnw57386 0.0 10092727
18:00+27nw59525 0.0 10091050
21:00+22n310715 0.0 1010534